Regional Weather Roundup
Issued by NWS

Home | Current Version | Previous Version | Graphics & Text | Print | Product List | Glossary On
Versions: 1 2 3 4 5 6 7 8 9 10 11 12 13 14 15 16 17 18 19 20 21 22 23 24 25 26 27 28 29 30 31 32 33 34 35 36 37 38 39 40 41 42 43 44 45 46 47 48 49 50
486
ASUS43 KIND 251559
RWRIN

WEATHER ROUNDUP FOR INDIANA
NATIONAL WEATHER SERVICE INDIANAPOLIS IN
1200 PM EDT SUN SEP 25 2016

NOTE: "FAIR" INDICATES FEW OR NO CLOUDS BELOW 12,000 FEET WITH NO
SIGNIFICANT WEATHER AND/OR OBSTRUCTIONS TO VISIBILITY.

* - STATION DOES NOT REPORT WEATHER SUCH AS PRECIPITATION OR FOG.

+ - STATION NOT QUALITY CONTROLLED BY THE NATIONAL WEATHER SERVICE.
    USE DATA WITH CAUTION...ESPECIALLY DEWPOINT AND RELATIVE
    HUMIDITY OBSERVATIONS.

INZ001>003-010>013-019-020-251700-
NORTHWEST INDIANA

CITY           SKY/WX    TMP DP  RH WIND       PRES   REMARKS
GARY /AIRPORT/ MOSUNNY   75  61  60 S12       30.08F
RENSSELAER +   MOSUNNY   77  64  65 S7        30.09F

$$

LMZ046-743>745-251700-
SOUTHERN LAKE MICHIGAN

STATION/POSITION TIME  TEMP    WIND        PRES    WAVE
                       AIR SEA DIR/SP/G            HT
                 (UTC) (F)     (DEG/KT/KT) (MB)    (FT)
BURNS HARBOR     1501   71     170/  8/ 17 1019.0F
MICHIGAN CITY    1500   67     120/ 12/ 14   N/A
5NW MICH CITY    1500   66 68  140/ 10/ 12   N/A     1

$$

INZ004-005-014>016-021>024-251700-
NORTH CENTRAL INDIANA

CITY           SKY/WX    TMP DP  RH WIND       PRES   REMARKS
GOSHEN         SUNNY     73  53  49 S10       30.13F
PERU/GRISSOM   SUNNY     76  63  64 S6        30.11F
SOUTH BEND     PTSUNNY   72  55  55 SE10      30.13F

$$

INZ006>009-017-018-025>027-251700-
NORTHEAST INDIANA

CITY           SKY/WX    TMP DP  RH WIND       PRES   REMARKS
ANGOLA *+        N/A     70  63  78 VRB7      30.16F
FORT WAYNE     MOSUNNY   72  56  57 CALM      30.15F
KENDALLVILLE + PTSUNNY   71  53  53 SE7       30.16F

$$

INZ028-029-035-036-043>045-051>053-251700-
WEST CENTRAL INDIANA

CITY           SKY/WX    TMP DP  RH WIND       PRES   REMARKS
CRAWFORDSVL +  SUNNY     78  67  67 S5        30.11S
GREENCASTLE +  SUNNY     77  70  78 S6        30.11F
LAFAYETTE      SUNNY     77  67  71 SE3       30.09F
TERRE HAUTE    SUNNY     80  68  66 S6        30.10F

$$

INZ030>032-037>040-046>048-054>057-064-065-251700-
CENTRAL INDIANA

CITY           SKY/WX    TMP DP  RH WIND       PRES   REMARKS
COLUMBUS       SUNNY     75  68  78 CALM      30.13F
INDIANAPOLIS   SUNNY     76  65  68 S3        30.12F
-EAGLE CREEK   SUNNY     77  64  64 S5        30.12F
MT COMFORT *+  SUNNY     79  64  61 SW7       30.13F
SHELBYVILLE    SUNNY     81  63  54 S6        30.12F

$$

INZ033-034-041-042-049-050-058-059-251700-
EAST CENTRAL INDIANA

CITY           SKY/WX    TMP DP  RH WIND       PRES   REMARKS
MUNCIE         SUNNY     78  61  55 S5        30.13F

$$

INZ060-061-067>069-081>083-085>088-251700-
SOUTHWEST INDIANA

CITY           SKY/WX    TMP DP  RH WIND       PRES   REMARKS
EVANSVILLE     SUNNY     85  66  53 S5        30.09F
HUNTINGBURG *+   N/A     82  70  65 CALM      30.11S

$$

INZ062-063-066-070>080-084-089>092-251700-
SOUTH CENTRAL AND SOUTHEAST INDIANA

CITY           SKY/WX    TMP DP  RH WIND       PRES   REMARKS
BLOOMINGTON    SUNNY     79  67  66 S5        30.12F
MADISON *+     SUNNY     79  63  57 S3        30.15S
SEYMOUR +      SUNNY     81  66  61 SE3       30.11F

$$





USA.gov is the U.S. government's official web portal to all federal, state and local government web resources and services.